Location: Unspecified
(0.0000°N, 0.0000°E)
Time: 23:29:26
(UTC+00:00)

A-11 Canister half - Pass Details

Date: 11 February 2023
Orbit: 1526 x 1682 km, 47.3° (Epoch: 29 March)

Event Time Altitude Azimuth Distance (km) Brightness Sun altitude
Rises 10:25:26 0° 348° (NNW) 4,730 11.4 59.6°
Reaches altitude 10° 10:29:47 10° 6° (N) 3,775 11.1 60.6°
Maximum altitude 10:36:04 19° 48° (NE) 3,154 11.0 61.9°
Drops below altitude 10° 10:42:26 10° 89° (E) 3,865 11.6 63.3°
Sets 10:46:54 0° 105° (ESE) 4,880 12.0 64.2°
